Regional Weather Roundup
Issued by NWS Jackson, KY

Home | Current Version | Previous Version | Graphics & Text | Print | Product List | Glossary Off
Versions: 1 2 3 4 5 6 7 8 9 10 11 12 13 14 15 16 17 18 19 20 21 22 23 24 25 26 27 28 29 30 31 32 33 34 35 36 37 38 39 40 41 42 43 44 45 46 47 48 49 50

000
ASUS43 KJKL 270710
RWRJKL

EAST KENTUCKY HOURLY WEATHER ROUNDUP
NATIONAL WEATHER SERVICE JACKSON KY
300 AM EDT TUE JUN 27 2017

NOTE: "FAIR" INDICATES FEW OR NO CLOUDS BELOW 12,000 FEET WITH
NO SIGNIFICANT WEATHER AND/OR OBSTRUCTIONS TO VISIBILITY.

* THESE REPORTS ARE NOT UNDER NWS QUALITY CONTROL AND MAY NOT
  REPORT WEATHER SUCH AS PRECIPITATION AND FOG.

KYZ079-080-083-085-087-088-110-112-115-119-120-270800
...EASTERN KENTUCKY...

CITY           SKY/WX    TMP DP  RH WIND       PRES   REMARKS
JACKSON        CLEAR     61  51  70 CALM      30.11F
LONDON         PTCLDY    58  54  86 CALM      30.12S
SOMERSET*      PTCLDY    55  55 100 CALM      30.13S
MONTICELLO*    PTCLDY    57  55  93 NE8       30.14S
WILLIAMSBURG*  MOSUNNY   55  55 100 CALM      30.12F
MIDDLESBORO*   PTCLDY    57  55  95 CALM      30.13F
HARLAN APT*    CLOUDY    55  54  94 CALM      30.13F
PIKE CO APT*     N/A     56  56  97 NW3G16    30.12R
BIG SANDY APT* MOSUNNY   60  54  79 CALM      30.11S
MOREHEAD APT*  CLOUDY    61  52  72 CALM      30.13R HAZE
ASHLAND*       CLOUDY    64  54  68 W6        30.07R
$$

KYZ035-036-041-042-044-050-067-078-099-270800
...CENTRAL KENTUCKY...

CITY           SKY/WX    TMP DP  RH WIND       PRES   REMARKS
MT STERLING*   CLOUDY    61  54  77 NW5       30.13S
FLEMING/MASON* RAIN      59  52  77 W5        30.12R
DANVILLE*      PTCLDY    55  52  88 CALM      30.13F
LEXINGTON      PTCLDY    62  50  64 CALM      30.11F
FRANKFORT      MOCLDY    60  51  72 CALM      30.09F
LOUISVILLE     LGT RAIN  61  57  87 NE5       30.11F
LEBANON*         N/A    N/A N/A N/A MISG        N/A
GLASGOW*       PTCLDY    58  58 100 CALM      30.11F
BOWLING GREEN  CLOUDY    63  58  83 CALM      30.10F
$$

KYZ091>093-OHZ055-061-077-WVZ005-015-034-035-042-270800
...SOUTHERN OHIO/WEST VIRGINIA...

CITY           SKY/WX    TMP DP  RH WIND       PRES   REMARKS
COVINGTON      CLEAR     56  50  80 N6        30.10R
COLUMBUS       CLOUDY    56  53  90 W6        30.05S
DAYTON         PTCLDY    55  49  80 W10       30.08S
WILMINGTON     CLEAR     52  52 100 SW5       30.08S
HUNTINGTON     CLOUDY    64  50  60 W5        30.08R
CHARLESTON     LGT RAIN  62  53  72 SW8       30.07R
PINEVILLE*     CLEAR     52  51  97 MISG      30.16S
BECKLEY        CLEAR     53  48  83 CALM      30.13R
BLUEFIELD      PTCLDY    54  47  77 W6        30.14S
LOGAN CO APT*  PTSUNNY   55  54  94 CALM      30.10R
$$

VAZ002-007-008-TNZ017-027-036-066-071-270800
...SOUTHWEST VIRGINIA/EAST TENNESSEE...

CITY           SKY/WX    TMP DP  RH WIND       PRES   REMARKS
WISE*          CLOUDY    55  48  76 CALM      30.16S
JONESVILLE*      N/A     55  54  94 CALM      30.14S
ABINGDON*      PTCLDY    57  54  89 CALM      30.12S
BRISTOL        CLOUDY    58  56  93 N3        30.11S
MORRISTOWN*    PTSUNNY   61  55  82 CALM      30.10S
SEVIERVILLE*   SUNNY     59  55  88 CALM      30.10S
KNOXVILLE      CLOUDY    63  58  83 CALM      30.09F
LAFOLLETTE*    SUNNY     59  57  94 CALM      30.14F
OAK RIDGE      CLOUDY    62  57  83 CALM      30.10F
CROSSVILLE     CLOUDY    58  54  86 CALM      30.14R
NASHVILLE      CLOUDY    69  55  60 CALM      30.11S
$$

...KEY TO REMARKS...
VSB - VISIBILITY IN MILES
WCI - WIND CHILL INDEX
HX  - HEAT INDEX

$$



USA.gov is the U.S. government's official web portal to all federal, state and local government web resources and services.